Location: Haulchin
(50.3172°N, 3.4360°E)
Time: 03:57:13
(UTC+00:00)

Cosmos 1300 Rocket - Pass Details

Date: 23 May 2024
Orbit: 597 x 623 km, 82.5° (Epoch: 21 June)

Event Time Altitude Azimuth Distance (km) Brightness Sun altitude
Rises 01:10:08 0° 354° (N) 2,879 8.1 -16.5°
Reaches altitude 10° 01:12:27 10° 1° (N) 1,966 7.2 -16.3°
Maximum altitude 01:16:38 45° 74° (ENE) 823 4.4 -16.1°
Enters shadow 01:20:31 11° 147° (SSE) 1,848 5.7 -15.8°
